Location: Caltech
(34.1382°N, 118.1253°W)
Time: 01:09:16
(UTC-07:00)

Cosmos 1975 - Visible Passes

Search period start: 01 July 2016 00:00
Search period end: 11 July 2016 00:00
Orbit: 544 x 566 km, 82.5° (Epoch: 30 June)

Date Brightness Start Highest point End Pass type
(mag) Time Alt. Az. Time Alt. Az. Time Alt. Az.
01 Jul 3.7 03:48:44 23° SSE 03:50:49 45° E 03:54:39 10° NNE visible
02 Jul 3.4 03:46:31 31° SSE 03:48:09 54° E 03:52:03 10° NNE visible
03 Jul 3.1 03:44:16 40° SSE 03:45:29 64° E 03:49:27 10° NNE visible
04 Jul 2.8 03:41:59 53° SSE 03:42:50 76° E 03:46:49 10° N visible
05 Jul 2.7 03:39:41 68° S 03:40:10 89° E 03:44:11 10° N visible
06 Jul 2.6 03:37:21 76° WSW 03:37:31 78° W 03:41:31 10° N visible
07 Jul 2.8 03:35:00 65° WNW 03:35:00 65° WNW 03:38:51 10° N visible
08 Jul 3.1 03:32:38 52° NW 03:32:38 52° NW 03:36:09 10° N visible
09 Jul 3.5 03:30:15 42° NW 03:30:15 42° NW 03:33:27 10° N visible
10 Jul 3.9 03:27:50 35° NW 03:27:50 35° NW 03:30:43 10° N visible
